ONEWEB-0531 (54146 NORAD) Tracking and Keplerian Element Data

This shows tracking and keplerian element data for the satellite.

Feedback or suggestion? Click here.




ElementValue
Catalog54146
NameONEWEB-0531
Epoch Orbit527
Epoch Day325.33334491
Epoch Year2022
RAAN206.9801
Inclination87.0888
Eccentricity0.0009941
Argument of Perigee185.0039
Mean Anonmoly158.5385
Mean Motion14.91703439
Decay Rate-0.00051657
L11 54146U 22138AK 22325.33334491 -.00051657 00000+0 -51791-2 0 9990
L22 54146 87.0888 206.9801 0009941 185.0039 158.5385 14.91703439 5276



Live tracking and technical data element details for ONEWEB-0531 (NORAD 54146). ONEWEB-0531 can be tracked NOW for your location showing map with azimuth and elevation plus other details from your city location.







IsCatalogInMostPopularTable: catalog: 54146, numindb: 5
Update: records affected: 1



GetName: 54146 ONEWEB-0531

Hit Count: updated at: Sun, 04 Dec 2022 22:28:31 GMT